Theta_e
282 282 282 282 282 282 282 281 281 281 281 280 280 280 280 279 279 278 279 279 278 278 278 278 278 279 279 279 279 280 281 282 281 281 281 281 282 282 282 282 282 282 283 283 283 282 282 282 282 282 282 281 281 281 281 281 281 281 281 281 281 280 281 281 281 280 279 279 281 280 280 281 281 281 281 281 282 282 282 282 282 282 282 282 282
282 281 281 281 281 281 280 280 280 278 279 279 279 278 278 279 278 278 278 277 277 277 277 278 278 278 277 278 278 278 279 278 278 279 279 280 280 280 279 280 280 280 281 281 281 281 281 281 282 281 281 281 281 281 281 282 282 281 281 280 281 280 280 281 281 280 278 278 278 278 279 281 281 282 281 281 281 281 282 282 282 281 281 282 282
280 280 280 280 280 279 279 279 279 279 278 278 278 278 277 277 277 277 277 276 276 277 277 276 278 278 277 277 277 277 279 279 278 278 278 277 277 277 277 277 278 278 279 279 280 280 281 281 281 281 281 281 281 280 281 280 281 280 280 279 280 280 280 281 280 280 278 279 278 276 276 276 280 280 281 280 281 281 282 281 281 280 280 281 281
278 278 278 278 278 278 278 278 278 278 277 277 277 277 276 276 276 276 276 276 275 276 277 277 277 277 277 277 277 277 276 278 276 276 276 276 275 276 276 277 277 277 278 278 278 279 280 280 281 281 281 281 280 280 280 280 280 280 280 280 279 277 279 279 281 280 280 278 276 276 276 276 274 277 277 280 281 280 280 280 280 280 281 280 282
277 277 277 277 277 277 277 277 277 277 277 276 276 276 276 275 276 276 275 275 275 275 275 276 276 276 276 276 277 275 275 275 274 273 274 274 274 274 275 276 276 277 277 277 278 278 279 280 280 280 280 280 280 279 279 279 280 280 280 279 279 278 277 279 280 280 279 281 279 276 275 273 273 276 277 278 280 279 278 279 280 280 280 280 281
277 277 276 276 276 276 276 276 276 276 276 276 276 276 276 275 275 275 275 274 274 275 275 276 275 274 273 272 271 271 270 271 270 270 271 272 272 274 275 275 276 276 277 277 278 278 279 279 279 278 278 278 279 279 279 279 279 279 280 279 279 279 278 277 276 280 280 280 280 280 279 276 277 278 276 274 279 279 280 280 280 280 280 280 280
278 277 277 276 276 275 275 275 275 275 275 276 276 275 276 275 274 274 274 274 274 275 275 275 274 273 272 271 270 270 269 271 272 272 272 273 274 273 274 274 275 275 276 277 277 278 278 278 277 277 277 277 278 278 277 277 278 278 279 279 279 279 279 275 275 276 279 279 279 279 279 280 279 276 274 276 274 278 278 278 278 279 279 279 279
277 277 276 276 276 275 274 275 275 275 275 275 275 275 275 274 273 273 273 274 274 274 274 275 273 272 270 270 270 270 270 270 271 272 273 273 272 272 272 272 273 274 275 275 275 277 277 276 275 275 275 275 276 276 276 276 277 278 278 278 279 279 278 276 276 277 275 276 279 278 278 278 278 278 277 275 275 273 275 278 278 279 279 279 279
277 276 276 276 275 275 275 275 275 275 275 274 274 275 275 273 273 273 272 273 273 274 274 273 272 271 270 270 269 270 271 271 272 272 272 271 270 270 270 271 272 273 273 273 274 273 272 271 272 273 273 273 275 275 274 275 275 275 275 276 276 277 278 278 277 276 277 276 277 276 277 276 277 277 277 277 273 272 273 275 276 278 278 278 279
277 277 277 276 276 275 276 275 275 275 274 274 274 275 274 273 272 272 271 272 273 273 273 271 271 270 269 269 269 269 270 271 270 269 269 269 268 268 269 270 271 271 271 272 271 270 269 270 270 271 271 272 274 273 272 272 273 273 274 274 275 275 276 277 276 277 277 277 277 277 275 275 274 274 275 274 275 275 272 274 276 275 275 277 279
277 277 277 277 277 276 276 275 274 274 274 273 273 274 273 272 271 271 271 271 272 272 272 270 270 269 269 269 269 269 269 269 268 267 268 267 267 267 268 269 269 269 270 270 269 268 268 269 269 269 270 271 271 270 270 270 271 271 272 272 273 273 274 275 276 277 277 277 277 277 276 276 274 273 273 274 274 274 274 273 274 275 275 275 278
278 278 277 276 276 275 275 274 274 273 273 272 272 273 273 271 271 270 271 271 271 272 271 269 269 269 269 269 268 269 269 267 267 266 266 266 266 266 268 268 268 268 269 269 268 267 267 267 268 268 268 268 268 268 268 269 269 270 270 271 271 272 273 274 275 275 275 276 276 277 277 277 277 276 277 276 275 275 275 275 276 276 276 276 277
278 277 277 276 275 274 273 273 273 272 271 271 271 272 272 271 270 270 270 270 269 270 269 269 268 268 268 268 268 269 268 267 266 266 266 266 266 266 266 266 267 267 267 267 267 267 266 266 266 266 266 267 267 267 267 267 268 268 268 269 269 270 271 272 272 273 274 275 275 277 277 277 277 278 277 277 276 276 276 274 275 277 274 276 278
278 277 276 274 274 274 273 273 273 272 271 271 271 272 271 271 270 269 269 269 269 268 268 268 268 268 268 268 268 269 267 267 266 266 266 266 266 266 266 266 266 266 266 266 267 266 266 266 265 265 266 266 266 266 266 267 267 266 267 267 268 269 270 270 270 271 272 273 274 275 276 276 277 278 278 277 276 275 274 273 273 274 275 274 276
278 276 275 274 273 273 273 272 272 271 271 270 270 271 271 269 269 269 268 268 268 267 267 267 267 267 268 268 269 268 267 266 266 266 265 265 265 265 265 266 266 266 266 266 266 265 265 265 265 264 265 265 266 266 266 266 266 266 266 267 267 269 269 269 270 270 270 271 272 272 273 276 276 277 277 277 277 277 276 275 274 271 272 273 272
277 276 274 274 273 273 272 272 271 271 270 270 269 270 270 269 269 269 268 268 267 267 266 266 266 267 267 267 268 268 267 266 266 266 265 265 265 265 265 265 265 265 265 265 265 265 264 264 264 264 264 265 265 265 265 264 264 264 265 267 267 269 269 269 269 270 270 271 271 272 272 273 276 276 277 277 277 277 277 277 276 274 271 270 274
277 276 274 273 273 272 272 271 270 270 270 269 269 270 269 268 268 268 268 267 267 267 266 266 266 266 266 267 267 267 266 265 264 264 264 264 264 264 264 264 264 264 264 264 264 264 263 263 263 263 263 264 264 264 264 264 264 264 264 265 265 266 266 266 267 268 269 270 272 273 273 273 274 276 276 277 277 277 277 277 277 275 274 272 270
276 275 274 273 272 272 271 271 270 269 269 269 268 269 268 268 268 268 267 266 266 266 266 265 265 265 265 266 266 266 265 265 264 263 264 263 263 263 263 263 263 263 263 263 263 263 263 263 262 263 263 263 263 263 263 263 263 263 263 264 264 265 265 265 266 266 266 267 268 270 273 274 275 275 275 276 276 276 276 276 276 276 276 273 272
275 274 273 273 272 271 270 270 269 269 269 269 268 268 268 268 268 268 267 267 266 266 266 265 265 265 265 265 265 266 265 264 264 263 263 262 262 262 262 262 263 263 263 262 262 262 262 262 262 262 262 262 262 262 262 262 263 262 263 263 264 264 264 263 264 265 265 266 266 267 269 270 273 274 275 275 276 276 276 276 276 276 275 275 273
275 273 273 272 271 271 270 269 268 268 268 268 268 268 267 267 267 267 267 267 266 266 265 264 264 264 264 264 265 266 265 264 263 262 262 262 262 262 262 261 262 262 262 262 261 261 261 261 261 261 261 261 261 261 262 262 262 262 262 263 263 263 263 263 263 264 265 265 265 265 266 267 270 272 273 275 275 276 276 275 275 275 275 275 274
273 272 272 271 270 270 269 269 268 268 268 268 268 267 267 267 266 266 265 265 265 265 264 263 264 263 263 263 264 265 264 263 262 262 262 261 261 262 261 261 261 261 261 261 261 261 261 261 261 261 261 261 261 261 261 262 261 261 262 262 262 262 262 262 263 263 264 264 264 264 265 266 268 268 271 273 274 275 275 275 275 275 274 275 274
272 272 271 271 270 269 269 269 268 267 267 266 267 267 266 265 265 264 265 264 264 264 264 263 263 263 263 263 263 264 263 263 262 261 261 261 261 261 261 261 260 261 261 260 260 260 260 260 260 260 260 260 260 261 261 261 261 261 261 261 261 262 262 262 262 262 263 263 264 263 264 265 267 267 267 269 272 274 274 274 274 274 274 274 275
271 271 271 270 269 269 268 268 267 266 266 266 265 265 265 265 264 264 264 264 264 264 263 263 262 262 262 262 263 262 262 262 261 261 260 260 260 260 260 260 260 260 260 260 260 260 260 260 259 259 259 260 260 260 260 260 260 260 260 260 261 261 261 261 261 261 262 262 262 263 263 265 266 267 268 269 270 271 274 274 274 274 273 274 275
271 271 271 270 269 269 268 267 266 266 265 265 265 265 265 264 264 263 263 263 263 263 263 262 262 261 262 262 262 262 261 261 260 260 260 260 260 260 260 259 260 260 259 260 260 259 259 259 259 259 259 259 259 259 259 259 260 260 260 260 260 260 261 261 261 261 261 262 262 263 264 265 266 266 267 268 270 272 273 274 274 274 274 273 274
270 270 269 269 269 268 267 266 266 265 264 264 264 264 264 264 263 263 263 263 263 263 262 262 261 261 261 261 261 261 260 260 260 260 259 259 259 259 259 259 259 259 259 259 259 259 259 258 258 258 258 259 259 259 259 259 259 260 260 260 260 260 260 260 261 261 262 262 262 263 264 264 265 265 266 268 270 270 271 272 273 273 273 273 274
269 269 269 268 268 267 267 266 265 264 264 263 263 263 263 263 263 263 262 262 262 262 261 261 261 260 260 260 260 260 260 259 259 259 259 259 259 259 259 259 259 258 258 258 258 258 258 258 258 258 258 258 259 258 258 259 259 259 259 259 259 259 260 260 260 260 261 261 261 261 262 262 263 263 264 266 268 269 270 271 272 272 273 273 273
268 268 269 268 267 266 266 265 264 264 263 263 262 262 263 262 262 262 262 262 261 261 261 260 260 260 259 259 259 259 259 259 259 259 259 258 258 258 258 258 258 258 257 257 257 257 258 258 257 258 258 258 258 258 258 259 259 259 259 259 259 259 259 260 260 260 261 261 261 261 262 262 262 263 263 264 265 266 268 270 270 271 272 272 271
268 268 267 266 266 265 265 264 264 263 263 262 262 262 262 262 261 262 262 261 261 260 260 260 259 259 259 259 259 259 259 259 259 258 258 258 258 258 258 258 257 257 257 257 256 256 257 257 257 257 258 258 258 258 258 258 258 258 258 258 259 259 259 260 260 261 261 261 262 262 263 263 263 264 264 265 266 266 267 267 269 270 270 270 270
267 267 266 265 265 264 264 263 263 262 262 261 261 262 262 262 262 262 261 261 261 260 259 259 259 258 258 259 259 259 259 258 258 258 257 257 257 257 257 257 257 256 256 256 256 256 256 256 256 257 257 257 257 257 257 257 257 258 258 258 259 260 260 260 261 261 262 262 262 263 264 264 265 266 267 267 268 268 267 267 268 269 269 269 269
266 265 265 264 264 264 263 263 262 262 261 261 261 261 261 261 261 261 261 260 260 259 259 258 258 258 258 258 258 258 258 258 257 257 257 257 256 256 256 255 255 255 255 255 255 256 255 255 255 256 256 256 256 257 258 263 265 263 263 263 263 263 262 262 262 262 262 263 263 264 265 267 267 268 268 268 269 270 270 269 269 269 269 268 268
265 264 264 264 263 263 263 262 262 261 261 260 260 261 261 260 261 260 260 260 260 259 258 258 257 258 258 258 258 257 257 256 256 256 256 256 256 255 255 254 254 254 254 255 255 255 254 255 255 255 255 255 256 257 262 266 267 264 265 264 264 264 264 264 264 264 264 265 266 266 266 267 268 268 268 269 270 270 272 271 272 272 272 270 268
264 263 263 263 262 262 262 261 261 261 260 260 260 260 260 260 260 260 260 260 259 258 258 257 257 258 257 257 257 256 256 256 255 255 255 255 255 254 254 254 253 254 254 254 254 254 254 254 255 255 255 255 256 260 265 267 268 268 267 265 265 265 265 265 265 265 265 266 266 266 267 267 267 268 268 268 269 270 271 271 272 272 273 274 274
263 263 263 262 262 262 262 262 261 261 260 260 260 260 259 260 259 259 259 259 258 258 257 257 257 257 257 256 256 256 255 255 254 254 254 254 254 253 253 253 253 253 254 253 254 254 254 254 254 254 254 255 256 262 265 268 267 268 269 266 265 266 266 265 266 266 266 266 266 266 266 267 267 269 269 269 269 269 270 271 272 272 272 273 274
263 263 262 262 263 262 262 262 261 261 261 261 260 260 260 260 259 259 258 258 257 257 257 256 256 256 256 256 255 255 254 254 254 254 254 253 253 252 253 253 253 253 253 253 253 254 254 254 254 254 255 255 255 261 266 268 268 267 268 267 267 267 266 266 265 266 266 266 266 266 266 266 267 267 268 268 268 269 269 269 269 270 270 271 273
263 263 263 262 262 261 261 260 260 260 260 259 259 259 259 259 259 258 258 257 257 256 256 256 255 255 255 255 255 254 254 254 254 253 253 252 252 252 252 253 253 253 252 252 253 253 253 254 254 254 254 255 255 263 267 268 268 267 267 268 268 267 267 266 266 266 266 266 266 266 266 266 266 267 268 269 268 269 269 270 269 269 270 270 271
264 263 262 262 261 260 260 260 261 259 259 259 259 259 258 258 258 257 257 256 256 255 255 255 255 255 255 255 254 253 253 253 253 252 252 252 252 252 251 252 252 253 253 253 253 254 253 253 254 254 254 254 256 264 267 269 269 268 272 268 268 268 267 267 266 266 266 266 266 266 266 266 266 267 268 271 271 270 270 269 269 269 270 270 270
264 263 262 262 261 261 261 261 259 259 258 258 259 258 258 257 257 256 256 256 255 254 254 254 254 254 254 254 254 253 252 252 252 252 251 251 251 251 251 252 252 252 252 253 253 253 254 254 254 254 254 255 256 261 267 269 270 271 270 268 268 268 268 267 267 266 266 266 266 266 266 266 266 266 269 271 272 272 270 269 269 269 269 269 269
263 263 262 261 261 261 260 260 259 258 259 259 258 258 257 256 256 256 255 255 254 253 254 254 254 254 254 254 253 253 252 252 251 251 251 251 251 251 251 252 252 252 252 252 253 253 254 254 254 254 255 255 257 261 267 269 270 271 271 268 268 268 268 268 267 266 266 266 266 268 268 266 266 267 270 271 273 272 269 269 269 268 268 268 268
263 262 260 260 260 260 260 259 258 257 258 258 257 257 256 255 255 255 254 253 253 253 253 254 254 254 254 253 253 252 252 251 251 251 251 250 251 251 251 252 252 252 252 253 253 253 253 254 254 255 257 257 257 259 265 268 270 271 270 268 268 268 268 268 268 267 267 266 266 267 268 268 268 268 271 272 274 272 270 270 269 268 267 267 268
262 262 260 260 260 259 258 258 257 258 258 257 257 256 255 255 254 254 253 252 252 253 254 254 254 253 253 253 253 252 252 251 251 250 250 250 251 251 251 252 252 252 252 252 253 253 252 253 255 255 256 257 258 259 262 268 270 270 272 269 268 267 267 267 268 267 266 266 266 266 267 270 270 271 272 273 273 273 271 270 270 268 267 266 268
261 260 262 260 259 258 258 258 258 258 258 257 256 255 254 254 253 253 252 252 253 254 254 254 253 253 253 253 252 252 251 251 251 250 251 250 251 251 251 251 251 251 252 252 252 252 253 253 255 256 257 258 259 260 262 268 269 270 271 271 268 267 268 267 267 267 266 266 265 266 266 268 270 271 272 273 273 274 273 271 269 268 268 269 270
262 262 261 259 259 258 258 258 258 258 257 256 256 255 254 253 252 251 252 253 254 253 253 253 253 253 252 252 251 251 251 250 250 250 250 250 251 251 251 251 251 251 250 250 251 252 252 253 255 256 257 258 260 261 261 265 268 269 270 271 268 268 269 268 266 266 267 266 266 266 266 267 269 271 272 272 273 273 273 272 270 273 273 274 271
260 260 260 259 258 258 257 258 258 257 257 257 255 253 252 252 251 252 253 253 253 253 253 253 252 252 251 251 250 250 250 250 250 250 249 249 250 250 250 250 250 250 250 250 251 251 252 253 254 256 257 258 259 260 262 262 265 268 269 270 271 270 271 268 266 266 266 267 267 267 267 269 270 272 272 272 273 273 273 272 273 273 274 274 273
260 260 259 259 258 258 257 258 258 257 257 256 254 252 252 251 252 253 253 253 252 253 253 252 251 250 250 250 250 250 250 249 249 249 249 249 249 249 250 250 250 250 250 250 251 252 252 253 254 255 257 258 259 259 261 262 262 267 269 270 271 271 271 267 266 266 267 267 267 267 268 270 271 272 273 273 273 273 271 273 274 274 274 273 272
259 259 259 258 257 257 257 257 257 257 256 255 253 252 251 251 252 253 252 252 252 251 251 250 250 250 249 249 249 249 249 249 249 249 249 249 249 249 249 250 250 250 250 250 251 252 253 253 254 255 256 257 258 258 259 261 262 263 268 269 270 270 270 267 265 265 267 268 269 270 270 271 272 272 273 273 272 272 273 273 273 273 273 272 272
259 259 258 258 257 257 256 255 256 256 255 254 253 252 250 251 252 252 252 251 251 250 249 249 249 249 249 249 248 248 248 249 249 249 249 249 249 249 249 249 250 250 250 250 251 252 253 254 254 255 255 256 257 257 258 259 261 263 265 267 268 268 267 266 266 265 266 268 269 269 269 269 269 269 269 269 269 270 271 272 272 272 271 271 271
258 259 258 257 256 255 255 254 254 255 255 254 253 252 252 252 251 252 252 251 249 249 249 249 249 249 248 248 248 248 249 249 249 249 249 249 249 249 249 249 249 250 250 251 252 253 253 254 254 255 255 256 256 257 257 259 260 262 263 264 264 264 266 265 263 263 264 263 263 264 264 265 265 266 267 267 269 270 270 270 270 270 270 271 271
259 258 258 256 255 255 254 254 254 254 254 253 253 252 252 252 251 252 250 249 248 248 248 248 248 248 248 248 248 249 249 248 248 248 248 248 249 249 249 249 249 250 251 252 252 253 253 254 254 255 255 255 255 256 257 258 260 262 262 262 263 263 263 262 261 262 261 261 261 262 261 261 261 261 261 262 263 265 265 266 267 268 269 270 271
258 258 257 256 255 254 254 253 253 254 253 252 252 252 252 252 252 251 249 247 248 248 248 247 248 248 247 248 248 248 248 248 248 248 248 248 248 248 249 250 252 254 254 254 253 254 255 256 256 255 254 254 255 255 257 261 261 263 262 261 261 262 262 261 262 263 261 259 259 258 258 258 258 258 258 259 259 260 261 262 262 263 264 267 268
258 257 257 255 255 254 253 253 253 253 253 252 252 252 251 252 251 250 248 247 248 248 247 247 247 247 247 248 248 248 248 248 248 247 247 248 251 253 253 253 253 256 257 258 257 255 255 256 256 256 256 255 254 256 260 263 263 263 264 263 264 264 264 262 261 261 259 257 256 256 256 256 256 256 256 257 257 258 258 259 260 262 261 262 263
257 256 256 255 255 254 253 252 253 253 252 252 251 251 251 251 251 250 248 247 246 246 247 247 247 247 248 248 248 247 247 247 247 247 247 247 247 249 255 258 257 256 257 258 256 260 259 258 257 255 257 258 258 259 261 261 261 262 262 263 263 263 263 262 260 257 255 255 254 254 255 255 255 256 256 256 256 257 257 257 258 259 260 260 260
Wind_Speed
8 10 11 12 12 11 11 11 12 14 14 14 14 14 13 10 11 13 11 12 12 11 11 10 10 9 8 8 8 7 6 7 7 8 9 9 11 10 11 10 11 10 10 10 10 9 8 7 7 7 5 4 5 6 6 7 5 5 5 4 6 6 5 4 4 2 4 7 5 6 6 6 9 10 8 7 6 4 4 4 4 3 3 3 3
11 11 12 12 11 12 11 11 14 16 13 13 14 12 11 12 13 12 12 12 12 11 9 8 8 7 8 7 7 7 7 8 8 8 9 9 11 11 11 11 12 11 11 11 11 10 10 9 8 7 7 6 5 6 7 6 7 5 4 5 4 6 5 2 2 1 4 5 8 8 6 5 6 5 7 6 4 4 4 4 4 3 3 3 2
11 11 11 11 13 13 12 12 12 12 12 12 11 13 14 13 13 12 11 11 10 11 10 9 8 9 9 8 8 7 6 7 7 8 9 10 10 11 11 12 13 12 13 13 10 10 10 9 8 7 7 6 6 6 6 7 6 6 5 5 7 3 5 4 5 5 6 3 3 6 6 10 2 3 3 4 5 5 5 5 4 4 4 3 3
12 11 11 11 12 12 12 12 10 10 12 12 13 14 12 13 11 11 10 10 10 11 10 9 9 9 7 7 7 7 7 7 7 6 8 10 10 11 11 12 13 13 14 13 10 10 10 10 9 8 8 7 6 7 8 8 7 7 5 5 5 8 5 4 4 5 6 3 5 1 5 4 11 1 1 4 6 9 5 5 3 4 4 4 3
11 11 11 11 13 13 12 11 10 12 12 13 13 12 9 11 10 11 9 10 10 11 11 9 8 8 8 7 6 7 7 7 8 8 9 9 9 10 11 11 12 11 11 12 11 11 11 10 10 9 9 9 8 7 7 8 8 7 8 7 6 7 10 8 3 4 7 7 8 5 4 2 4 7 8 8 3 4 4 4 4 5 6 5 3
11 11 11 11 11 11 11 12 13 12 12 11 10 10 10 10 10 10 8 9 10 11 11 9 9 9 10 11 11 10 9 9 11 12 11 11 10 10 10 11 12 11 11 12 11 11 11 11 11 11 10 10 9 8 8 8 9 9 8 8 8 8 9 9 8 4 6 8 9 9 9 10 9 5 4 8 3 4 5 7 8 7 6 5 4
10 10 9 11 10 12 12 12 11 12 11 8 8 8 9 10 10 9 9 8 9 10 12 9 9 10 11 9 9 8 8 8 8 9 9 9 9 11 10 10 11 12 11 10 12 11 10 10 11 11 10 10 10 9 9 10 9 9 9 8 8 8 7 7 7 8 7 7 8 11 12 11 9 6 7 7 12 4 6 4 5 5 5 7 8
9 10 10 10 11 11 12 11 11 10 8 7 8 8 10 12 11 10 9 9 9 10 10 10 10 10 11 10 8 8 8 9 9 9 8 8 9 11 10 10 10 10 10 11 12 11 11 12 12 11 11 10 10 9 9 9 10 9 10 10 9 7 8 7 8 8 8 8 5 9 10 12 12 11 12 10 10 11 10 5 8 8 8 9 9
9 9 10 10 11 11 10 10 8 9 10 10 10 9 9 10 10 10 10 9 9 11 10 11 11 11 9 8 8 7 7 7 7 8 9 10 12 11 11 10 9 10 10 11 10 12 13 14 14 13 12 12 10 9 10 11 11 12 11 10 10 10 9 9 8 8 8 10 8 8 7 8 8 10 11 10 9 8 13 10 11 5 8 8 7
8 9 9 9 9 9 8 8 10 10 10 10 9 7 8 8 10 11 11 10 10 11 10 12 12 10 9 9 9 8 8 7 8 9 10 11 11 12 10 9 9 10 10 9 10 12 13 12 11 12 12 11 10 11 12 12 11 11 11 11 12 12 10 10 9 9 10 11 10 11 8 5 5 6 7 9 11 12 13 10 7 12 11 7 7
7 8 9 9 8 8 8 10 10 10 10 10 9 8 8 9 10 12 11 10 11 10 11 12 10 10 8 10 10 10 11 9 10 10 10 11 12 11 10 10 9 9 9 8 10 11 11 10 10 11 11 10 11 12 11 12 11 12 12 13 13 12 11 12 13 12 11 11 12 11 12 11 10 8 7 8 10 9 9 11 10 10 12 13 7
6 7 7 7 8 9 9 10 10 10 10 11 10 8 9 9 11 11 11 12 11 10 11 12 10 10 9 10 10 9 9 8 10 11 12 13 13 11 10 10 10 10 9 9 10 11 11 10 11 11 10 10 10 10 11 11 12 12 12 11 11 12 13 13 12 13 13 11 12 11 13 13 13 13 11 8 10 11 10 12 10 6 10 10 7
6 5 6 7 8 8 9 8 9 11 11 11 10 7 7 8 11 11 11 11 12 12 11 12 11 11 10 10 10 7 8 8 10 10 12 11 11 11 11 10 10 10 10 11 10 13 11 11 11 11 11 10 11 11 10 11 11 11 11 13 12 13 12 13 12 13 13 12 11 12 13 13 14 13 12 12 9 10 11 12 11 6 12 12 6
6 6 7 7 7 7 7 8 8 8 9 9 9 7 7 8 10 10 10 10 11 11 12 12 11 10 10 9 9 6 7 9 9 10 11 10 9 10 10 10 10 10 11 10 11 13 11 12 12 12 12 12 12 12 12 12 12 11 12 12 13 12 12 14 14 15 15 16 14 13 13 14 15 14 13 13 13 9 10 11 10 8 9 13 9
6 6 6 7 7 7 6 6 6 7 8 8 8 7 7 9 9 10 10 11 12 12 11 13 11 11 10 9 8 6 7 8 8 10 11 11 10 10 10 10 10 10 10 11 12 12 12 12 13 13 13 13 13 12 11 12 12 12 11 12 11 11 12 13 13 14 14 16 16 15 15 15 15 14 15 17 14 14 13 11 9 10 10 11 11
4 5 6 6 6 6 6 6 6 7 8 8 10 8 8 10 9 9 9 10 11 11 12 12 12 10 12 11 9 7 7 8 9 10 10 10 11 10 11 10 10 11 10 11 12 11 12 13 12 12 13 13 12 13 13 12 12 12 12 11 12 10 12 14 13 14 16 17 17 16 15 16 15 14 14 16 16 16 14 13 11 10 13 15 11
4 5 5 5 5 5 5 6 6 8 8 9 10 8 9 9 8 9 9 10 11 10 12 12 12 12 12 11 10 7 8 10 10 13 12 11 10 10 10 11 11 10 10 10 11 11 12 12 12 12 12 12 12 12 13 12 12 12 12 13 13 12 12 13 13 13 14 15 14 17 15 15 14 14 14 15 16 15 15 14 14 13 12 15 13
5 6 5 5 4 5 5 5 6 9 8 8 9 8 8 8 9 8 9 11 11 10 12 12 13 12 12 12 11 7 7 9 11 12 11 10 11 10 10 10 11 11 10 10 11 13 12 13 11 12 12 12 12 12 12 13 12 11 12 12 12 12 12 11 11 12 14 13 15 16 14 15 15 15 14 15 13 14 13 13 13 12 12 16 14
5 4 4 3 3 4 5 6 6 8 8 6 7 7 8 8 9 8 10 10 10 9 10 10 11 9 9 11 11 6 6 9 11 11 10 11 12 11 12 12 12 11 11 12 12 12 12 12 12 12 12 12 12 12 12 12 12 12 12 11 11 11 12 13 12 12 12 12 14 16 15 15 15 15 15 15 14 12 13 13 12 12 12 13 14
4 3 3 3 3 4 5 6 6 8 7 5 6 6 8 8 9 9 9 9 10 9 10 10 10 9 10 11 10 6 7 10 11 11 11 11 12 12 12 12 12 11 12 13 12 12 13 13 12 13 13 13 14 13 12 13 12 12 12 12 12 13 14 14 14 12 10 12 14 15 16 14 15 15 15 15 14 13 11 12 12 12 12 14 12
3 2 1 2 3 4 4 4 3 5 5 5 6 6 7 7 9 10 10 10 9 9 10 9 9 9 10 11 11 8 10 11 11 11 11 11 11 11 11 11 12 12 12 12 12 13 13 13 14 13 15 14 14 14 13 13 13 13 13 14 15 14 15 14 13 15 13 12 13 14 15 15 15 16 16 16 16 15 11 12 11 12 13 12 12
2 1 1 1 2 3 1 3 2 5 6 7 7 6 7 7 8 9 8 9 9 10 10 10 9 9 10 11 11 10 10 10 12 12 11 11 11 11 12 12 12 12 11 13 13 12 12 14 14 15 15 14 15 14 14 13 13 14 15 12 13 15 15 15 14 15 14 11 13 15 16 15 14 15 16 18 17 16 13 13 12 12 13 13 12
2 0 1 1 0 2 2 4 4 5 6 7 7 7 7 7 9 9 9 10 10 10 10 9 9 10 11 11 11 10 11 12 12 11 11 12 12 12 12 13 13 13 12 12 13 13 15 15 15 15 14 14 14 15 14 14 14 15 16 15 14 15 16 16 16 16 16 14 15 15 16 15 13 15 16 16 16 18 16 12 13 12 12 13 13
2 1 2 1 1 3 3 5 6 6 8 8 8 9 8 7 8 9 9 10 10 10 10 9 9 10 11 11 10 11 12 12 12 11 13 13 13 12 12 13 14 13 13 14 14 15 14 15 15 14 14 15 15 15 15 14 15 16 15 16 16 15 15 16 16 16 16 15 16 16 16 15 15 16 16 16 15 15 16 16 12 9 10 11 10
1 2 1 1 2 4 5 6 6 7 7 7 8 9 8 8 8 9 9 10 9 10 10 10 10 11 11 10 11 11 11 12 12 12 13 14 13 14 13 15 15 14 15 14 14 14 14 14 14 15 16 16 16 16 16 15 15 15 16 16 16 16 16 16 16 17 17 17 18 18 18 17 16 17 17 15 14 17 16 15 15 12 12 11 9
2 3 1 3 4 5 5 5 5 4 6 6 7 8 8 8 8 8 9 9 9 9 9 10 10 10 10 11 11 11 12 13 13 13 14 14 16 14 15 14 14 16 15 14 15 14 13 16 15 16 16 16 16 15 15 17 17 16 16 16 16 16 17 17 18 18 18 17 18 18 18 17 16 17 18 18 18 18 16 15 16 15 13 11 13
1 3 3 2 4 4 4 5 4 4 5 6 7 8 8 8 9 9 8 9 9 9 9 9 10 10 10 10 11 12 12 12 14 14 14 15 14 15 15 15 14 14 15 15 15 16 15 15 16 16 16 16 17 16 17 18 18 17 16 16 17 17 18 17 17 18 18 18 17 17 17 17 17 17 17 17 18 19 15 15 14 14 13 13 13
1 2 5 5 5 4 4 5 5 5 5 6 7 8 8 9 9 9 9 9 8 9 10 10 10 10 10 11 11 12 12 14 14 14 15 14 14 15 14 14 14 15 15 15 16 16 15 14 15 16 16 15 16 17 16 17 17 16 15 16 16 18 18 18 18 17 16 15 16 17 17 17 17 18 18 18 18 15 15 16 15 13 13 13 14
3 4 4 5 5 6 7 6 5 5 6 7 8 8 8 8 8 9 8 8 9 9 9 9 10 10 10 11 12 11 13 14 15 15 14 14 15 14 14 14 14 14 13 14 16 16 16 16 16 15 17 16 15 15 14 14 14 16 15 16 18 18 18 18 17 16 16 16 15 16 17 17 18 23 29 27 24 23 16 15 16 14 15 16 15
5 4 4 5 6 7 7 6 5 5 6 7 7 8 8 9 9 8 8 9 8 8 9 9 9 10 10 11 12 13 14 14 14 14 14 15 14 14 14 14 14 14 14 14 15 14 14 15 16 16 15 13 13 12 19 30 28 20 17 13 13 13 13 13 15 15 15 17 16 17 17 27 29 30 31 32 33 33 33 25 18 14 16 16 17
5 4 5 5 6 7 7 6 6 5 6 7 7 8 8 8 8 8 9 9 8 9 9 9 10 10 11 12 12 12 13 14 14 14 14 14 15 14 14 13 13 13 14 13 13 15 14 12 13 14 14 12 12 13 28 30 30 24 22 18 16 16 18 18 17 18 18 18 15 15 15 20 24 27 27 34 34 36 34 35 37 35 27 18 15
6 5 5 5 7 7 7 6 5 5 6 7 7 8 8 8 8 9 9 9 9 9 9 10 10 12 11 13 12 13 14 14 13 14 14 13 13 13 13 13 12 14 14 13 13 13 12 13 12 13 14 13 13 23 31 31 33 33 30 22 17 15 15 14 14 15 15 15 16 16 15 13 15 18 19 20 24 30 33 35 36 35 33 34 31
6 6 5 5 8 8 8 6 4 5 5 6 8 8 8 9 10 9 9 9 10 9 10 10 11 11 12 12 12 13 13 13 11 12 12 12 12 13 12 11 12 12 12 13 14 14 14 12 13 15 16 14 14 25 30 33 29 30 27 24 14 14 14 14 14 15 16 17 16 16 15 14 14 23 20 17 17 18 25 34 34 35 35 34 32
5 5 5 6 7 6 7 5 5 5 5 6 7 8 8 8 8 9 9 9 9 9 9 10 10 10 11 11 12 13 12 11 12 12 11 11 11 12 10 10 11 12 13 13 13 14 14 14 13 13 13 14 16 23 31 32 34 31 32 27 18 16 14 14 16 16 15 16 17 17 16 15 13 13 14 15 15 16 17 17 18 18 18 23 28
6 7 7 7 7 8 8 6 5 4 5 5 6 6 7 7 8 9 8 9 8 9 9 9 10 10 9 11 12 12 12 13 13 12 12 11 10 11 11 11 11 12 13 13 13 14 14 13 12 13 11 14 15 29 30 33 30 25 32 31 18 16 14 15 15 16 16 15 15 14 14 15 14 15 13 16 16 17 16 14 14 16 15 14 15
6 8 8 6 6 7 8 6 4 4 5 5 6 6 6 7 7 8 8 8 8 9 10 9 8 9 10 13 12 12 12 12 12 11 11 13 12 11 12 12 11 12 11 11 11 11 14 14 15 13 14 16 17 30 31 32 35 35 38 20 15 16 16 16 16 16 15 12 13 13 13 14 15 14 19 27 25 19 16 16 16 14 13 12 12
6 5 6 6 6 7 7 5 5 5 5 5 6 5 6 7 7 7 7 7 8 8 8 8 8 11 10 10 11 12 12 12 11 12 12 13 13 13 11 10 12 13 13 13 11 13 12 13 14 14 15 15 16 25 31 33 33 36 28 15 16 14 14 16 16 15 13 12 12 13 13 13 13 13 20 27 28 28 17 14 13 13 12 11 11
5 5 5 6 6 6 6 5 6 6 5 5 5 5 6 7 7 7 7 8 8 7 7 9 10 11 10 10 11 11 12 12 11 10 12 13 12 11 11 10 10 11 13 13 12 13 12 11 13 15 14 15 16 23 32 32 33 34 31 20 15 14 16 16 15 13 11 11 13 21 20 14 14 14 23 27 29 24 18 15 11 12 16 13 11
5 6 7 7 7 7 6 5 6 8 6 5 6 6 6 7 7 7 6 6 7 7 8 9 10 10 9 9 10 10 11 12 11 11 11 13 12 11 10 10 10 11 13 13 12 12 12 12 11 13 19 19 16 20 28 30 33 33 29 18 17 14 15 15 12 10 10 9 9 13 21 20 18 19 27 27 28 24 16 12 11 11 10 12 12
5 5 6 7 6 6 7 7 8 8 6 5 5 6 7 7 6 5 7 8 7 8 10 8 9 9 9 9 9 10 11 10 11 12 11 11 11 10 11 12 11 11 12 12 12 11 11 11 11 12 13 14 15 16 20 31 32 33 35 24 14 15 16 17 14 11 11 8 8 9 13 21 25 26 26 26 25 25 16 10 10 10 10 12 10
5 6 4 6 6 6 7 9 7 6 5 5 5 5 5 5 6 7 8 8 6 9 9 9 9 9 10 10 8 9 11 11 9 10 10 11 10 10 12 11 11 11 10 12 12 11 11 11 10 11 12 14 12 15 21 30 31 33 36 32 16 17 17 16 14 12 11 11 9 7 7 15 22 24 24 25 25 25 18 8 11 11 11 13 8
5 4 5 6 6 8 8 8 7 7 6 4 5 6 6 6 6 8 8 7 6 6 9 9 10 10 11 9 9 10 9 9 10 10 10 11 10 10 9 12 10 9 11 13 13 10 10 12 11 11 11 12 14 21 18 25 30 33 34 38 22 18 21 17 16 14 12 10 10 7 7 12 20 22 22 24 25 24 21 5 10 17 21 20 12
7 6 6 6 6 8 8 8 6 6 5 4 5 6 7 6 8 9 7 7 7 6 9 9 10 10 10 10 10 11 11 9 9 10 10 12 11 11 11 11 10 11 12 13 13 11 11 13 11 10 9 11 13 15 23 21 28 32 35 34 35 26 30 18 16 15 13 11 8 7 9 16 21 22 22 22 22 23 18 8 15 21 23 24 19
6 7 7 6 7 7 7 7 6 5 6 5 3 6 7 8 10 7 6 6 7 6 8 9 9 9 10 10 10 11 11 9 9 10 10 11 11 11 9 8 10 8 8 9 10 11 11 10 13 13 13 12 12 13 18 25 24 31 33 34 32 32 30 20 17 13 12 11 9 9 11 21 22 21 22 20 20 19 14 17 19 16 16 17 10
8 8 7 5 7 9 8 9 7 7 6 5 4 6 8 10 9 5 6 7 7 7 7 9 9 9 10 9 10 10 11 10 9 8 9 9 11 11 9 10 9 8 7 8 10 10 10 11 13 14 14 14 14 14 14 19 27 28 31 30 31 31 29 28 17 15 14 13 16 19 18 17 16 19 21 19 16 17 19 19 18 18 15 5 6
7 7 6 7 6 8 8 9 9 7 7 4 5 5 8 10 7 6 6 7 7 7 8 9 9 9 10 9 11 10 9 10 10 7 7 7 9 8 8 8 8 8 7 7 8 11 12 12 13 13 14 14 14 14 14 15 16 21 21 25 28 27 26 27 23 17 25 24 22 21 21 19 16 15 9 6 6 7 14 17 16 15 7 5 5
8 8 6 6 4 7 9 9 11 8 6 5 5 6 8 8 8 7 7 6 6 7 9 9 9 8 9 8 9 8 8 9 8 8 6 6 6 7 7 7 8 9 8 7 8 11 12 13 14 14 14 13 13 13 14 14 13 14 15 15 16 17 21 20 15 14 16 14 16 16 14 18 16 19 17 14 11 9 7 6 5 4 4 3 5
7 7 6 5 6 8 9 9 10 9 6 6 7 8 8 8 7 7 6 6 7 7 8 9 9 8 8 8 8 9 10 8 8 8 7 7 6 6 7 7 8 9 10 11 10 11 12 14 13 13 13 13 12 12 13 14 15 15 14 13 14 14 14 10 12 13 13 12 11 12 14 11 11 11 11 10 9 8 8 8 6 4 2 3 4
8 7 5 7 6 8 9 9 11 8 7 7 8 8 7 8 8 6 5 6 8 8 8 9 8 7 7 6 7 8 7 7 8 8 7 7 8 8 7 10 10 8 8 11 13 13 10 10 11 12 12 12 12 13 14 21 19 23 18 15 14 13 13 10 14 19 12 10 9 10 11 11 11 11 11 10 10 10 9 9 8 8 6 5 3
8 6 7 7 7 8 9 10 10 8 7 8 8 8 7 7 6 6 5 7 7 7 7 8 7 6 7 6 7 7 7 7 7 7 8 11 10 15 13 11 11 16 21 22 16 12 9 10 11 11 10 11 13 14 24 29 28 26 25 25 22 22 22 17 19 19 11 8 9 9 10 10 10 10 10 10 10 9 9 9 9 9 8 7 5
7 6 7 7 8 8 9 10 10 7 8 8 9 8 7 8 7 7 5 6 6 6 6 7 7 6 7 7 7 8 7 7 8 7 6 7 11 12 16 19 18 18 20 21 16 23 16 20 15 12 13 21 22 26 28 28 28 26 27 24 23 20 22 22 21 12 8 9 10 10 10 10 10 9 9 10 9 9 9 9 8 7 7 7 7
Wind_Direction
83 78 74 72 69 67 68 65 67 65 58 55 56 51 47 44 43 42 32 27 25 18 15 11 9 0 3 1 354 343 339 0 0 3 5 359 356 359 358 358 352 349 350 349 346 340 333 322 314 309 306 289 281 276 280 287 281 268 277 276 277 279 277 254 264 258 290 286 241 251 271 251 260 271 273 268 253 254 259 261 256 259 258 268 277
86 73 68 68 65 65 64 61 56 58 51 54 53 51 47 42 44 38 33 27 27 22 11 9 6 6 352 345 347 348 353 4 4 6 3 359 357 358 356 352 350 349 349 349 347 347 343 338 327 319 318 307 289 281 281 282 284 277 272 282 238 262 270 253 262 234 269 282 315 314 294 261 246 237 246 249 272 262 253 248 252 250 264 260 259
83 79 72 70 67 62 62 59 59 62 58 54 51 47 40 38 35 35 31 27 21 16 12 6 360 6 357 349 356 349 359 10 6 359 356 354 353 357 354 352 350 349 349 348 346 343 340 336 332 325 317 315 311 303 296 291 285 285 276 274 291 248 262 260 248 209 275 292 285 301 312 332 281 222 215 258 249 252 247 244 249 257 249 248 271
86 79 75 68 67 64 61 57 57 59 54 47 41 42 40 36 33 31 30 28 19 18 10 2 6 4 357 358 4 6 0 352 349 350 356 356 360 360 356 354 352 348 346 344 340 337 337 336 332 332 327 324 316 312 311 305 303 300 291 274 263 287 268 266 211 217 227 278 292 205 317 320 309 311 277 243 239 257 256 257 242 241 255 267 264
95 86 77 72 67 61 61 61 56 55 50 46 40 39 41 38 31 30 28 25 22 16 8 5 5 8 9 6 8 359 357 358 355 359 1 357 355 357 353 353 350 346 341 339 338 337 337 343 349 348 348 345 340 331 322 315 309 303 299 291 272 274 285 279 249 202 222 218 259 292 287 242 228 295 325 294 203 222 218 227 213 249 281 286 268
89 87 83 78 76 71 61 56 56 53 49 47 43 44 47 41 32 29 27 27 20 15 10 11 14 19 11 6 1 360 357 359 2 352 349 352 352 344 347 352 349 345 340 339 339 340 353 358 360 357 355 354 350 346 338 331 323 317 308 298 288 267 267 280 280 243 229 225 233 244 256 279 301 297 337 300 136 178 242 232 258 270 266 260 252
84 84 83 80 75 71 61 57 53 54 49 43 47 48 51 44 32 30 28 27 20 14 12 15 20 22 11 5 358 357 353 353 352 345 345 341 345 343 348 346 346 340 339 342 346 350 359 356 357 353 350 351 346 347 349 344 335 329 320 309 296 288 273 269 264 276 269 235 228 238 248 256 260 265 260 286 294 247 188 201 232 227 235 246 262
90 84 80 79 73 68 66 60 54 55 46 39 43 46 48 36 27 30 28 24 18 12 17 22 17 9 3 4 1 1 357 343 344 342 343 342 349 344 339 335 338 338 339 350 347 346 356 356 351 347 344 341 338 338 338 335 334 330 329 319 308 293 277 270 274 268 268 273 209 241 238 244 247 249 248 252 269 290 282 226 230 242 247 247 253
91 90 85 80 75 70 65 62 62 51 39 34 32 39 45 34 31 33 30 23 15 13 21 20 13 3 0 1 359 354 350 343 342 345 351 350 344 336 336 332 336 341 345 345 350 358 359 345 338 334 333 333 331 328 330 327 326 324 324 325 321 313 301 281 271 267 262 264 268 253 239 246 242 237 244 241 249 264 268 269 279 217 233 235 233
85 90 90 85 80 73 69 68 53 44 35 32 31 40 41 32 28 28 27 18 11 10 21 11 5 2 4 358 356 349 351 350 360 354 351 343 336 336 334 336 340 341 340 348 6 355 343 334 329 327 325 325 326 328 325 324 322 318 315 311 309 306 302 294 282 275 266 264 258 267 262 245 241 245 232 232 244 236 260 264 261 282 278 248 206
98 94 89 87 81 70 57 52 46 38 31 26 25 29 34 28 23 25 22 16 7 6 14 3 4 3 2 355 352 351 356 3 356 349 344 343 338 334 336 335 338 337 335 340 350 345 339 337 335 332 330 329 328 326 325 322 320 315 310 306 300 298 297 293 289 284 280 272 263 257 255 252 245 234 220 216 224 234 239 252 250 247 261 279 236
105 96 92 83 65 51 44 44 38 32 27 23 18 22 27 24 20 19 15 15 5 2 9 1 358 359 357 352 352 350 6 1 354 347 344 341 336 333 332 331 332 334 331 333 338 346 340 336 335 333 331 329 328 328 325 323 319 317 312 307 302 297 292 288 284 282 278 275 267 261 259 256 252 251 249 227 218 237 236 253 250 234 255 247 250
92 77 66 55 50 41 37 35 31 27 22 15 8 16 21 22 20 16 10 12 6 1 359 355 354 354 354 348 345 355 5 1 352 347 344 338 333 331 332 330 329 329 329 330 332 340 336 333 335 333 328 327 325 324 321 320 319 314 311 307 302 300 294 290 286 282 283 278 275 271 265 259 255 253 252 249 239 241 242 256 252 230 257 270 250
76 67 63 55 48 44 40 34 33 25 17 10 5 14 21 14 18 11 7 10 5 0 356 350 349 348 346 342 340 360 356 359 353 347 340 333 327 327 327 326 322 321 324 327 330 332 330 329 327 324 320 318 320 319 317 318 315 310 306 304 302 297 295 292 288 286 281 277 276 274 267 262 261 257 253 250 248 238 236 240 257 246 228 257 266
75 73 67 61 52 45 41 37 30 22 12 10 4 11 19 8 10 4 3 6 2 359 355 351 346 343 342 339 341 3 354 355 352 347 337 330 326 323 322 321 319 321 325 321 324 322 321 323 322 319 318 318 317 316 315 314 313 306 301 296 293 294 293 292 288 286 282 278 272 266 267 263 260 256 256 255 249 247 247 245 239 245 245 233 248
96 95 83 71 59 49 43 37 26 15 11 10 7 7 14 0 0 359 2 359 355 354 354 348 342 341 336 339 338 358 356 355 348 342 335 329 324 322 319 318 319 319 318 318 318 318 316 316 314 312 312 312 312 313 313 312 311 308 301 297 294 295 293 292 291 289 284 281 277 271 265 261 259 256 254 256 252 251 248 248 240 233 247 261 247
111 91 88 74 61 49 43 35 27 13 8 13 6 6 5 352 352 351 355 355 351 354 351 343 339 338 336 336 334 352 357 356 344 335 327 325 322 321 317 314 314 315 314 314 314 314 312 309 308 308 308 309 309 308 307 304 304 302 300 300 299 301 298 297 295 292 291 291 284 274 268 268 263 259 255 251 253 251 248 245 239 234 232 249 254
94 93 89 86 70 55 42 36 32 15 2 11 3 1 356 344 350 347 351 352 349 348 348 345 339 337 333 332 327 341 353 349 339 328 324 319 316 315 313 313 314 314 312 310 312 311 309 308 303 302 303 304 304 303 301 300 299 295 294 291 289 292 290 289 291 292 292 294 292 292 288 274 267 263 259 254 250 247 244 241 236 232 228 238 243
122 99 80 75 67 54 42 29 23 9 355 8 349 351 351 346 352 347 348 346 342 343 344 339 332 328 327 324 318 324 344 341 331 319 317 316 314 313 312 310 309 311 312 312 311 310 308 307 305 303 304 303 302 300 299 297 296 294 292 290 289 290 289 288 285 285 286 288 288 287 286 284 283 274 264 258 250 243 244 242 238 231 225 228 238
103 106 101 85 63 53 41 22 11 359 336 353 344 350 350 353 351 345 341 338 338 335 339 334 328 326 323 324 318 319 337 333 328 324 318 314 312 311 309 310 310 310 308 309 307 306 306 305 305 305 303 303 304 300 298 296 295 292 293 292 292 293 289 285 286 282 282 284 285 283 282 281 281 279 274 265 257 244 239 242 237 231 228 228 231
99 99 71 88 70 30 35 4 2 354 343 355 346 348 347 353 348 344 338 335 332 334 334 330 328 323 325 323 321 318 331 328 324 318 314 311 309 308 307 307 310 306 305 305 304 303 303 303 305 305 305 301 300 299 299 297 295 291 290 289 290 288 285 285 283 285 282 280 280 280 280 279 282 280 278 274 266 252 237 238 233 232 232 225 224
119 109 111 96 76 4 349 350 356 4 350 357 348 341 341 346 343 339 334 329 332 330 333 326 323 320 320 319 321 320 322 323 320 319 316 312 313 311 309 306 305 305 307 305 304 304 305 306 304 303 301 299 297 296 296 296 291 292 290 289 289 290 286 285 286 284 284 281 281 282 281 281 279 274 271 272 275 268 248 233 226 225 230 230 221
141 186 142 136 89 353 351 357 356 1 354 349 345 338 333 339 339 336 332 327 330 327 325 321 321 322 320 319 316 316 319 319 319 317 316 315 313 312 310 312 311 312 310 307 307 306 307 305 302 298 297 296 298 297 297 295 293 291 291 290 287 286 285 284 284 283 283 283 280 278 279 281 282 279 275 268 264 267 262 240 228 225 225 227 225
128 309 149 43 257 347 347 352 354 357 351 347 341 335 330 333 332 327 324 323 326 326 323 321 322 318 317 318 319 318 319 319 318 316 314 314 313 311 313 311 311 310 311 312 308 308 305 302 301 298 297 297 297 297 295 294 292 290 288 287 286 284 281 281 280 282 283 284 280 281 279 280 281 279 277 277 276 269 258 253 243 226 225 227 226
37 359 131 354 330 348 357 352 354 353 342 339 332 324 320 319 323 322 318 320 323 323 320 319 319 318 318 319 320 321 320 319 319 316 315 314 313 317 315 316 313 310 310 308 306 306 302 301 300 299 299 297 296 296 294 292 290 287 285 284 283 282 281 280 280 280 281 283 283 281 283 286 287 286 285 279 268 259 260 260 253 241 237 234 231
40 347 283 341 347 346 341 342 328 329 323 321 318 313 312 313 315 317 316 319 319 318 318 318 318 318 317 319 320 322 321 322 320 317 317 316 319 314 315 311 311 307 306 305 304 304 303 300 299 298 297 296 296 293 291 290 288 287 283 281 280 279 278 277 276 275 274 274 274 273 272 272 273 273 274 277 279 279 276 268 258 251 244 238 236
12 344 326 314 309 305 303 307 302 302 314 316 315 312 310 312 312 312 313 314 315 316 315 317 317 317 318 319 320 321 321 321 321 318 317 316 312 312 310 309 309 305 305 304 302 302 301 299 298 297 295 294 293 290 288 287 285 283 280 278 276 275 273 271 268 264 261 262 261 261 262 261 261 262 265 266 272 278 279 271 267 265 254 246 241
254 294 315 289 283 296 293 293 297 302 311 314 312 308 310 313 311 313 313 316 317 319 318 318 319 318 317 319 320 320 319 320 317 314 313 311 310 310 308 306 306 305 303 301 301 301 299 296 295 293 292 292 290 290 287 284 282 279 276 270 268 267 266 262 262 256 251 245 247 252 253 251 252 256 257 260 265 267 264 269 268 265 264 257 250
262 276 284 299 295 302 306 293 290 302 311 314 312 309 310 308 308 308 311 313 316 314 315 314 314 313 314 317 319 317 319 318 316 315 312 310 309 306 305 306 304 303 300 298 299 297 296 295 292 290 292 291 288 283 280 279 277 272 261 257 258 258 256 257 255 249 246 242 242 250 252 254 250 249 251 253 254 254 257 259 257 254 255 254 253
262 266 280 291 297 302 296 289 287 297 307 310 308 306 306 307 306 307 309 311 316 312 311 310 309 310 310 313 315 317 316 316 314 312 310 309 308 307 306 305 303 300 299 298 295 293 294 293 293 293 290 286 283 280 280 282 282 277 272 268 265 258 252 249 250 247 246 242 239 250 256 257 258 257 254 254 254 255 256 255 252 243 243 244 245
257 275 280 287 294 292 284 285 288 296 308 307 305 303 303 303 304 309 311 312 316 310 308 306 306 309 314 315 316 314 314 312 313 309 308 307 308 307 304 302 301 298 296 296 295 297 294 291 291 290 291 285 279 279 286 290 290 284 283 281 268 264 265 264 264 267 271 270 262 250 252 256 259 264 266 265 263 260 258 258 257 254 246 235 234
265 269 275 283 296 295 293 287 286 294 301 305 304 304 304 302 308 308 310 310 307 307 309 309 308 313 312 314 313 312 310 309 310 310 310 308 306 304 303 304 302 304 302 300 296 294 294 293 291 290 289 286 283 290 293 295 294 294 293 287 278 274 269 266 260 254 256 256 262 261 256 255 259 263 263 261 261 260 259 258 256 255 252 247 237
260 268 276 280 298 297 289 284 277 286 295 301 307 305 303 308 312 310 311 310 311 310 308 306 307 307 310 311 311 310 309 307 306 305 306 306 305 303 301 304 303 302 302 301 302 302 298 295 294 296 296 293 290 293 297 298 297 294 292 292 284 279 276 265 261 262 260 262 262 264 265 259 261 266 269 267 264 257 255 253 253 254 254 251 249
251 262 279 290 296 294 295 287 287 292 301 307 307 303 300 306 308 307 307 305 306 304 304 304 302 305 307 308 310 310 308 303 306 308 305 304 306 303 298 299 299 303 303 301 299 297 297 297 296 293 292 292 290 294 298 300 301 299 297 295 292 289 281 269 267 262 259 257 257 260 264 263 259 257 256 262 264 262 254 248 247 247 248 253 253
276 287 289 290 290 292 292 282 281 293 303 304 298 297 300 302 308 307 305 306 306 303 303 303 303 303 303 307 309 308 304 306 307 306 306 304 303 303 303 305 305 303 304 303 303 306 301 298 295 296 293 293 293 297 302 304 304 299 300 300 298 292 284 274 265 258 254 254 254 254 256 260 260 257 257 257 258 258 256 248 240 238 239 240 244
281 289 286 281 282 286 287 278 282 291 289 293 290 295 299 297 300 298 298 299 299 301 301 299 297 301 305 310 310 307 305 306 307 307 306 306 307 306 306 310 305 302 298 296 298 299 300 301 301 300 299 298 298 302 306 307 307 306 305 306 299 293 286 277 267 258 253 250 251 251 253 254 255 258 261 264 264 261 252 243 238 233 234 235 237
273 256 264 262 268 280 278 270 269 276 284 288 288 290 292 295 295 292 295 295 300 298 298 299 298 305 306 307 308 307 306 307 309 309 308 308 309 310 308 308 307 307 308 307 305 306 302 301 302 302 301 298 297 302 306 309 311 310 310 307 306 298 287 281 268 258 249 245 246 246 248 253 255 257 261 263 265 265 257 242 227 226 229 229 232
254 245 251 258 264 266 261 255 273 276 277 277 279 291 293 293 293 295 300 301 300 296 298 301 302 305 305 306 307 307 306 308 310 307 307 305 304 301 298 306 302 303 305 304 304 303 301 297 299 299 297 296 297 302 307 310 312 312 317 318 313 305 302 298 281 258 248 246 245 247 250 249 251 254 258 261 264 264 260 248 221 218 227 229 228
239 242 258 262 267 267 269 276 276 283 280 272 281 292 291 287 292 295 297 296 295 292 298 302 302 304 303 301 302 303 304 305 306 304 305 303 303 302 298 298 297 299 299 300 302 301 299 296 292 294 296 298 297 299 306 313 317 319 320 317 317 312 312 313 301 270 251 247 243 249 252 255 252 252 256 260 263 265 258 243 224 215 217 219 225
240 241 242 258 268 282 284 278 276 272 275 273 283 286 285 287 289 293 293 289 286 293 297 295 298 298 298 297 300 301 300 301 300 302 300 296 298 299 300 303 303 302 301 302 302 298 294 292 294 295 299 299 300 302 306 317 320 321 322 322 322 322 325 325 316 284 266 248 244 248 253 258 264 267 269 271 276 277 263 226 209 207 206 223 219
254 252 256 272 273 268 270 269 266 268 263 266 265 275 279 280 285 287 281 279 282 294 296 297 298 298 300 301 298 298 299 300 297 297 296 297 297 296 301 300 300 302 300 303 303 300 298 293 293 294 297 301 300 311 315 319 320 323 325 326 327 327 330 333 327 308 269 260 252 247 241 256 263 269 272 273 276 281 285 215 204 202 209 221 197
235 250 266 271 272 272 275 275 268 263 255 249 261 271 280 281 283 276 276 283 287 290 298 298 299 302 303 300 299 299 297 298 301 300 299 297 297 297 297 300 301 298 302 303 304 301 299 299 295 298 301 304 315 321 319 319 321 324 326 328 330 330 337 344 332 328 299 260 256 252 250 257 263 271 274 273 274 279 286 264 201 206 215 219 206
273 271 256 267 279 276 272 272 269 258 245 256 256 273 279 281 275 276 283 286 288 287 297 299 300 301 300 300 299 300 303 304 301 300 297 298 302 304 302 301 300 306 306 306 306 303 306 307 305 306 303 313 318 321 324 321 321 326 328 331 335 336 344 348 335 325 321 292 269 261 257 262 266 271 272 273 274 276 281 279 235 221 217 214 212
258 251 259 256 267 270 275 273 268 256 249 251 257 271 276 277 275 280 280 281 285 284 295 298 300 299 301 301 302 302 302 301 301 301 300 300 305 306 302 300 306 303 300 304 307 311 309 307 314 317 320 321 322 323 321 322 322 324 329 334 337 339 345 348 336 324 320 313 293 276 263 265 264 267 269 268 270 275 274 272 272 268 254 236 212
270 266 260 260 263 277 278 278 272 267 254 256 247 257 273 275 276 282 277 283 286 291 294 297 298 299 298 299 300 299 301 300 298 301 303 307 305 310 307 311 309 304 303 302 306 308 309 310 316 319 320 323 326 323 318 317 322 324 330 337 339 340 345 348 341 327 323 323 332 339 346 336 303 278 271 270 270 274 275 274 272 270 268 246 222
269 270 263 260 269 273 278 278 279 269 267 257 253 240 266 270 278 277 277 275 284 289 293 290 293 294 295 299 300 298 294 293 296 296 292 291 298 302 302 304 302 299 295 298 302 312 315 316 320 319 319 323 325 321 316 318 320 324 330 338 340 339 345 349 346 342 347 350 354 2 1 359 0 1 351 331 290 269 269 272 274 274 278 256 228
273 268 270 273 273 280 278 279 281 283 275 272 265 260 255 271 276 274 273 281 283 286 286 288 289 294 296 296 295 299 301 302 300 299 289 286 292 294 296 295 295 297 297 296 304 313 315 316 319 321 321 323 323 319 318 316 320 326 337 339 342 339 345 351 347 346 345 347 354 3 9 9 10 10 9 360 359 341 316 292 274 277 278 257 233
260 268 262 266 268 270 276 277 277 280 277 273 273 270 270 269 272 270 274 279 281 281 284 288 291 292 295 296 295 293 298 299 300 303 303 301 290 292 293 290 294 295 301 305 309 310 312 316 315 320 326 323 321 324 319 319 322 333 341 347 343 339 343 353 344 343 339 335 338 349 3 6 3 9 5 6 1 0 5 5 356 342 317 266 265
274 265 254 260 270 270 269 272 274 278 276 275 270 271 269 270 271 273 271 275 275 277 278 285 288 291 291 293 292 295 294 296 299 297 291 283 293 293 285 285 279 272 287 303 310 307 305 308 313 325 323 321 325 324 318 309 321 340 350 353 347 341 343 354 350 345 338 330 342 2 6 5 7 2 4 3 0 2 3 2 3 6 351 1 0
263 261 255 260 259 263 269 269 272 274 274 272 274 273 269 266 268 266 261 262 271 279 283 282 286 287 292 293 297 296 296 296 296 301 303 302 285 290 293 295 300 307 308 304 303 297 318 329 330 325 326 327 326 316 317 325 333 343 356 358 350 346 349 1 356 352 352 345 0 2 5 2 359 360 2 2 359 357 357 359 358 4 4 358 10
266 266 267 261 265 268 270 273 273 275 271 272 275 277 276 273 267 260 250 256 265 278 276 282 286 288 289 294 296 296 295 295 296 298 297 298 307 307 303 305 308 310 311 311 319 327 331 338 338 327 327 332 328 327 329 330 333 349 357 358 353 351 355 7 5 358 1 10 3 6 3 1 1 359 1 358 354 356 358 358 352 351 356 358 359